• In Deutschland
  • Länderverzeichnis
  • Für 7 Tage
  • Wassertemperatur
  • Satellitenkarten
  • Wetterkarte
  • Widgets
  • user-avatar
    Anmelden

    Stündliche Wetter Hilden

    Heute, 20 Juli, Freitag

    Zeit Temperatur Niederschläge Wind Luftdruck Luftfeuchtigkeit
    00:00 +20°C° 0 mm 1 m/S 757 mmHg 64%
    01:00 +20°C° 0 mm 1 m/S 756 mmHg 66%
    02:00 +19°C° 0 mm 1 m/S 756 mmHg 67%
    03:00 +19°C° 0 mm 1 m/S 756 mmHg 68%
    04:00 +20°C° 0 mm 1 m/S 756 mmHg 66%
    05:00 +21°C° 0 mm 1 m/S 756 mmHg 64%
    06:00 +22°C° 0 mm 1 m/S 755 mmHg 61%
    07:00 +24°C° 0 mm 1 m/S 755 mmHg 55%
    08:00 +25°C° 0 mm 1 m/S 755 mmHg 48%
    09:00 +27°C° 0 mm 1 m/S 755 mmHg 42%
    10:00 +29°C° 0 mm 1 m/S 754 mmHg 39%
    11:00 +30°C° 0 mm 1 m/S 754 mmHg 36%
    12:00 +31°C° 0 mm 1 m/S 754 mmHg 32%
    13:00 +31°C° 0 mm 1 m/S 754 mmHg 32%
    14:00 +31°C° 0 mm 1 m/S 753 mmHg 32%
    15:00 +31°C° 0 mm 1 m/S 753 mmHg 33%
    16:00 +30°C° 0,1 mm 1 m/S 753 mmHg 37%
    17:00 +29°C° 0,1 mm 1 m/S 753 mmHg 42%
    18:00 +27°C° 0,1 mm 2 m/S 752 mmHg 46%
    19:00 +26°C° 0,1 mm 1 m/S 752 mmHg 50%
    20:00 +25°C° 0,1 mm 1 m/S 752 mmHg 54%
    21:00 +24°C° 0,1 mm 1 m/S 753 mmHg 58%
    22:00 +23°C° 0,3 mm 1 m/S 752 mmHg 60%
    23:00 +23°C° 0,3 mm 1 m/S 752 mmHg 63%

    Morgen, 21 Juli, Samstag

    Zeit Temperatur Niederschläge Wind Luftdruck Luftfeuchtigkeit
    00:00 +22°C° 0,3 mm 1 m/S 752 mmHg 66%
    01:00 +21°C° 0,3 mm 1 m/S 752 mmHg 68%
    02:00 +21°C° 0,3 mm 1 m/S 752 mmHg 71%
    03:00 +21°C° 0,3 mm 1 m/S 752 mmHg 73%
    04:00 +21°C° 0,1 mm 1 m/S 752 mmHg 72%
    05:00 +22°C° 0,1 mm 1 m/S 752 mmHg 71%
    06:00 +20°C° 0,1 mm 0 m/S 752 mmHg 70%
    07:00 +24°C° 0,1 mm 1 m/S 752 mmHg 64%
    08:00 +25°C° 0,1 mm 1 m/S 752 mmHg 59%
    09:00 +27°C° 0,1 mm 1 m/S 752 mmHg 53%
    10:00 +29°C° 0,2 mm 1 m/S 752 mmHg 49%
    11:00 +30°C° 0,2 mm 1 m/S 752 mmHg 45%
    12:00 +30°C° 0,2 mm 0 m/S 752 mmHg 40%
    13:00 +31°C° 0,2 mm 1 m/S 752 mmHg 41%
    14:00 +31°C° 0,2 mm 1 m/S 752 mmHg 42%
    15:00 +31°C° 0,2 mm 1 m/S 752 mmHg 43%
    16:00 +30°C° 0,1 mm 1 m/S 752 mmHg 46%
    17:00 +29°C° 0,1 mm 1 m/S 752 mmHg 49%
    18:00 +28°C° 0,1 mm 1 m/S 752 mmHg 53%
    19:00 +27°C° 0,1 mm 1 m/S 752 mmHg 57%
    20:00 +25°C° 0,1 mm 2 m/S 753 mmHg 61%
    21:00 +24°C° 0,1 mm 2 m/S 753 mmHg 66%
    22:00 +23°C° 0,4 mm 2 m/S 753 mmHg 71%
    23:00 +21°C° 0,4 mm 2 m/S 753 mmHg 76%

    übermorgen, 22 Juli, Sonntag

    Zeit Temperatur Niederschläge Wind Luftdruck Luftfeuchtigkeit
    00:00 +21°C° 0,4 mm 1 m/S 753 mmHg 81%
    01:00 +21°C° 0,4 mm 1 m/S 753 mmHg 83%
    02:00 +19°C° 0,4 mm 2 m/S 753 mmHg 85%
    03:00 +19°C° 0,4 mm 2 m/S 753 mmHg 87%
    04:00 +19°C° 0 mm 2 m/S 753 mmHg 86%
    05:00 +19°C° 0 mm 2 m/S 754 mmHg 85%
    06:00 +20°C° 0 mm 2 m/S 754 mmHg 83%
    07:00 +21°C° 0,1 mm 2 m/S 754 mmHg 77%
    08:00 +24°C° 0,1 mm 3 m/S 754 mmHg 70%
    09:00 +25°C° 0,1 mm 3 m/S 754 mmHg 63%
    10:00 +26°C° 0,1 mm 3 m/S 754 mmHg 57%
    11:00 +28°C° 0,1 mm 3 m/S 754 mmHg 52%
    12:00 +29°C° 0,1 mm 3 m/S 754 mmHg 47%
    13:00 +29°C° 0,1 mm 3 m/S 753 mmHg 45%
    14:00 +29°C° 0,1 mm 4 m/S 753 mmHg 43%
    15:00 +30°C° 0,1 mm 4 m/S 753 mmHg 42%
    16:00 +29°C° 0 mm 3 m/S 753 mmHg 44%
    17:00 +28°C° 0 mm 3 m/S 754 mmHg 46%
    18:00 +28°C° 0 mm 3 m/S 754 mmHg 48%
    19:00 +26°C° 0 mm 3 m/S 754 mmHg 53%
    20:00 +24°C° 0 mm 3 m/S 755 mmHg 58%
    21:00 +22°C° 0 mm 3 m/S 755 mmHg 63%
    22:00 +21°C° 0 mm 3 m/S 755 mmHg 68%
    23:00 +20°C° 0 mm 2 m/S 755 mmHg 72%

    23 Juli, Montag

    Zeit Temperatur Niederschläge Wind Luftdruck Luftfeuchtigkeit
    00:00 +19°C° 0 mm 2 m/S 755 mmHg 77%
    01:00 +19°C° 0 mm 2 m/S 755 mmHg 79%
    02:00 +19°C° 0 mm 1 m/S 756 mmHg 81%
    03:00 +18°C° 0 mm 1 m/S 756 mmHg 83%
    04:00 +19°C° 0 mm 1 m/S 756 mmHg 79%
    05:00 +20°C° 0 mm 1 m/S 756 mmHg 76%
    06:00 +21°C° 0 mm 1 m/S 756 mmHg 72%
    07:00 +22°C° 0 mm 1 m/S 756 mmHg 66%
    08:00 +24°C° 0 mm 1 m/S 756 mmHg 59%
    09:00 +25°C° 0 mm 2 m/S 756 mmHg 53%
    10:00 +26°C° 0 mm 2 m/S 756 mmHg 51%
    11:00 +27°C° 0 mm 2 m/S 756 mmHg 50%
    12:00 +27°C° 0 mm 2 m/S 755 mmHg 49%
    13:00 +27°C° 0 mm 2 m/S 755 mmHg 49%
    14:00 +28°C° 0 mm 2 m/S 755 mmHg 48%
    15:00 +28°C° 0 mm 2 m/S 755 mmHg 48%
    16:00 +28°C° 0 mm 2 m/S 755 mmHg 50%
    17:00 +27°C° 0 mm 1 m/S 755 mmHg 53%
    18:00 +27°C° 0 mm 1 m/S 755 mmHg 55%
    19:00 +26°C° 0 mm 1 m/S 755 mmHg 60%
    20:00 +24°C° 0 mm 1 m/S 756 mmHg 64%
    21:00 +23°C° 0 mm 1 m/S 756 mmHg 69%
    22:00 +22°C° 0 mm 1 m/S 756 mmHg 71%
    23:00 +22°C° 0 mm 1 m/S 756 mmHg 74%

    24 Juli, Dienstag

    Zeit Temperatur Niederschläge Wind Luftdruck Luftfeuchtigkeit
    00:00 +21°C° 0 mm 1 m/S 756 mmHg 76%
    01:00 +21°C° 0 mm 1 m/S 756 mmHg 78%
    02:00 +20°C° 0 mm 1 m/S 755 mmHg 79%
    03:00 +20°C° 0 mm 1 m/S 755 mmHg 81%
    04:00 +21°C° 0 mm 1 m/S 755 mmHg 77%
    05:00 +22°C° 0 mm 1 m/S 755 mmHg 74%
    06:00 +23°C° 0 mm 1 m/S 755 mmHg 70%
    07:00 +25°C° 0 mm 1 m/S 755 mmHg 64%
    08:00 +26°C° 0 mm 1 m/S 755 mmHg 58%
    09:00 +28°C° 0 mm 1 m/S 755 mmHg 51%
    10:00 +29°C° 0 mm 1 m/S 754 mmHg 48%
    11:00 +30°C° 0 mm 1 m/S 754 mmHg 45%
    12:00 +31°C° 0 mm 2 m/S 753 mmHg 42%
    13:00 +31°C° 0 mm 2 m/S 753 mmHg 42%
    14:00 +31°C° 0 mm 2 m/S 753 mmHg 42%
    15:00 +31°C° 0 mm 2 m/S 752 mmHg 42%
    16:00 +31°C° 0 mm 2 m/S 752 mmHg 45%
    17:00 +30°C° 0 mm 2 m/S 752 mmHg 48%
    18:00 +30°C° 0 mm 1 m/S 752 mmHg 51%
    19:00 +28°C° 0 mm 1 m/S 752 mmHg 54%
    20:00 +27°C° 0 mm 1 m/S 753 mmHg 58%
    21:00 +25°C° 0 mm 1 m/S 753 mmHg 62%
    22:00 +25°C° 0 mm 2 m/S 753 mmHg 64%
    23:00 +24°C° 0 mm 2 m/S 753 mmHg 66%

    25 Juli, Mittwoch

    Zeit Temperatur Niederschläge Wind Luftdruck Luftfeuchtigkeit
    00:00 +24°C° 0 mm 2 m/S 753 mmHg 69%
    01:00 +23°C° 0 mm 2 m/S 753 mmHg 70%
    02:00 +23°C° 0 mm 1 m/S 753 mmHg 72%
    03:00 +22°C° 0 mm 1 m/S 753 mmHg 74%
    04:00 +23°C° 0,2 mm 1 m/S 753 mmHg 73%
    05:00 +24°C° 0,2 mm 1 m/S 753 mmHg 72%
    06:00 +24°C° 0,2 mm 1 m/S 753 mmHg 71%
    07:00 +26°C° 0,2 mm 1 m/S 753 mmHg 66%
    08:00 +27°C° 0,2 mm 1 m/S 753 mmHg 62%
    09:00 +29°C° 0,2 mm 1 m/S 753 mmHg 57%
    10:00 +30°C° 0,4 mm 1 m/S 753 mmHg 54%
    11:00 +31°C° 0,4 mm 1 m/S 752 mmHg 51%
    12:00 +32°C° 0,4 mm 1 m/S 752 mmHg 48%
    13:00 +32°C° 0,3 mm 1 m/S 752 mmHg 48%
    14:00 +32°C° 0,3 mm 2 m/S 752 mmHg 48%
    15:00 +31°C° 0,3 mm 2 m/S 752 mmHg 49%
    16:00 +30°C° 0,3 mm 2 m/S 752 mmHg 52%
    17:00 +29°C° 0,3 mm 2 m/S 752 mmHg 56%
    18:00 +29°C° 0,3 mm 2 m/S 752 mmHg 60%
    19:00 +27°C° 0,1 mm 2 m/S 753 mmHg 64%
    20:00 +26°C° 0,1 mm 2 m/S 753 mmHg 69%
    21:00 +24°C° 0,1 mm 2 m/S 753 mmHg 74%
    22:00 +24°C° 0,1 mm 2 m/S 754 mmHg 76%
    23:00 +23°C° 0,1 mm 2 m/S 754 mmHg 78%
    Mehr zeigen